User: anonymous   Login
Location: Champs
(48.8539°N, 2.6040°E)
Time: 20:36:14
(UTC+00:00)
Language:

CZ-2C R/B - Orbit

View from above orbital plane
View from above orbital plane
View from above satellite
View from above satellite

Ground track
Ground track

The orbit data is extracted from the following two-line orbital elements,

1 28480U 04046B   22016.90169995  .00000093  00000-0  50736-4 0  9992
2 28480  98.0542  16.7060 0140886 311.6514 104.7255 14.25780527892868
Epoch (UTC): 16 January 2022 21:38:26
Eccentricity: 0.0140886
inclination: 98.0542°
perigee height: 704 km
apogee height: 907 km
right ascension of ascending node: 16.7060°
argument of perigee: 311.6514°
revolutions per day: 14.25780527
mean anomaly at epoch: 104.7255°
orbit number at epoch: 89286

The dashed part of the orbit path shows where the satellite is in the earth's shadow,  

DLR